| time (UTC) | temp F | wind direction | speed MPH | gust MPH | rain 1hr in | rain 24hr in | rain mn in | humidity % | barometer mb |
| 20260505013018 | 67 | 137 | 1.0 | 4.0 | 0.00 | 0.00 | 0.00 | 31 | 1016.0 |
| 20260505011510 | 67 | 216 | 0.0 | 2.0 | 0.00 | 0.00 | 0.00 | 30 | 1015.6 |
| 20260505010009 | 68 | 218 | 1.0 | 3.0 | 0.00 | 0.00 | 0.00 | 29 | 1015.6 |
| 20260505004510 | 69 | 217 | 0.0 | 3.0 | 0.00 | 0.00 | 0.00 | 27 | 1015.5 |
| 20260505003013 | 70 | 218 | 0.0 | 4.0 | 0.00 | 0.00 | 0.00 | 26 | 1015.3 |
| 20260505001508 | 71 | 221 | 0.0 | 3.0 | 0.00 | 0.00 | 0.00 | 25 | 1015.3 |
| 20260505000024 | 72 | 200 | 1.0 | 5.0 | 0.00 | 0.00 | 0.00 | 24 | 1015.2 |
| 20260504234508 | 73 | 194 | 1.0 | 7.0 | 0.00 | 0.00 | 0.00 | 22 | 1015.0 |
| 20260504233010 | 73 | 196 | 1.0 | 9.0 | 0.00 | 0.00 | 0.00 | 21 | 1014.9 |
| 20260504231521 | 74 | 233 | 2.0 | 10.0 | 0.00 | 0.00 | 0.00 | 22 | 1014.8 |
| 20260504230016 | 74 | 150 | 3.0 | 8.0 | 0.00 | 0.00 | 0.00 | 21 | 1014.7 |
| 20260504224514 | 75 | 188 | 4.0 | 11.0 | 0.00 | 0.00 | 0.00 | 20 | 1014.8 |
| 20260504223010 | 75 | 209 | 2.0 | 9.0 | 0.00 | 0.00 | 0.00 | 19 | 1014.8 |
| 20260504221510 | 75 | 181 | 3.0 | 8.0 | 0.00 | 0.00 | 0.00 | 19 | 1014.7 |
| 20260504220012 | 75 | 123 | 2.0 | 9.0 | 0.00 | 0.00 | 0.00 | 18 | 1014.8 |
| 20260504214503 | 76 | 248 | 5.0 | 13.0 | 0.00 | 0.00 | 0.00 | 19 | 1014.8 |
| 20260504213009 | 76 | 261 | 5.0 | 12.0 | 0.00 | 0.00 | 0.00 | 18 | 1014.7 |
| 20260504211501 | 76 | 130 | 3.0 | 9.0 | 0.00 | 0.00 | 0.00 | 19 | 1014.7 |
| 20260504210001 | 76 | 186 | 3.0 | 11.0 | 0.00 | 0.00 | 0.00 | 19 | 1014.9 |
| 20260504204604 | 76 | 147 | 4.0 | 10.0 | 0.00 | 0.00 | 0.00 | 18 | 1015.0 |
| 20260504203103 | 76 | 242 | 5.0 | 11.0 | 0.00 | 0.00 | 0.00 | 16 | 1015.2 |
| 20260504201559 | 76 | 261 | 3.0 | 9.0 | 0.00 | 0.00 | 0.00 | 20 | 1015.4 |
| 20260504200100 | 75 | 216 | 2.0 | 8.0 | 0.00 | 0.00 | 0.00 | 22 | 1015.7 |
| 20260504194608 | 76 | 221 | 5.0 | 9.0 | 0.00 | 0.00 | 0.00 | 23 | 1015.7 |
| 20260504193053 | 75 | 199 | 3.0 | 9.0 | 0.00 | 0.00 | 0.00 | 22 | 1016.0 |
| 20260504191552 | 75 | 262 | 4.0 | 12.0 | 0.00 | 0.00 | 0.00 | 22 | 1015.9 |
| 20260504190114 | 74 | 294 | 6.0 | 12.0 | 0.00 | 0.00 | 0.00 | 24 | 1016.1 |
| 20260504184555 | 74 | 182 | 2.0 | 9.0 | 0.00 | 0.00 | 0.00 | 25 | 1016.4 |
| 20260504183046 | 75 | 200 | 2.0 | 6.0 | 0.00 | 0.00 | 0.00 | 25 | 1016.3 |
| 20260504181547 | 74 | 96 | 3.0 | 10.0 | 0.00 | 0.00 | 0.00 | 25 | 1016.7 |
| 20260504180114 | 75 | 261 | 2.0 | 4.0 | 0.00 | 0.00 | 0.00 | 22 | 1016.9 |
| 20260504174541 | 74 | 229 | 1.0 | 4.0 | 0.00 | 0.00 | 0.00 | 19 | 1016.9 |
| 20260504173039 | 73 | 43 | 3.0 | 6.0 | 0.00 | 0.00 | 0.00 | 18 | 1017.2 |
| 20260504171534 | 72 | 259 | 3.0 | 9.0 | 0.00 | 0.00 | 0.00 | 19 | 1017.4 |
| 20260504120113 | 48 | 265 | 0.0 | 0.0 | 0.00 | 0.00 | 0.00 | 62 | 1018.3 |
| 20260504081533 | 52 | 205 | 1.0 | 3.0 | 0.00 | 0.00 | 0.00 | 51 | 1018.0 |
| 20260504050014 | 57 | 178 | 2.0 | 7.0 | 0.00 | 0.00 | 0.00 | 43 | 1018.0 |
| 20260504044513 | 57 | 244 | 1.0 | 9.0 | 0.00 | 0.00 | 0.00 | 44 | 1018.4 |
| 20260504043013 | 57 | 136 | 1.0 | 5.0 | 0.00 | 0.00 | 0.00 | 44 | 1018.3 |
| 20260504041512 | 56 | 144 | 2.0 | 5.0 | 0.00 | 0.00 | 0.00 | 44 | 1018.4 |
| 20260504040012 | 57 | 149 | 0.0 | 5.0 | 0.00 | 0.00 | 0.00 | 44 | 1018.7 |
| 20260504034516 | 57 | 200 | 1.0 | 5.0 | 0.00 | 0.00 | 0.00 | 45 | 1018.7 |
| 20260504033010 | 57 | 183 | 1.0 | 3.0 | 0.00 | 0.00 | 0.00 | 44 | 1018.6 |
| 20260504031509 | 57 | 165 | 0.0 | 4.0 | 0.00 | 0.00 | 0.00 | 44 | 1018.6 |
| 20260504030008 | 57 | 215 | 0.0 | 3.0 | 0.00 | 0.00 | 0.00 | 44 | 1018.6 |
| 20260504024505 | 58 | 160 | 0.0 | 2.0 | 0.00 | 0.00 | 0.00 | 43 | 1018.6 |
| 20260504023003 | 58 | 146 | 1.0 | 4.0 | 0.00 | 0.00 | 0.00 | 43 | 1018.6 |
| 20260504021611 | 58 | 151 | 0.0 | 2.0 | 0.00 | 0.00 | 0.00 | 41 | 1018.4 |
| 20260504020107 | 59 | 152 | 1.0 | 5.0 | 0.00 | 0.00 | 0.00 | 40 | 1018.3 |
| 20260504014600 | 59 | 165 | 1.0 | 5.0 | 0.00 | 0.00 | 0.00 | 40 | 1017.9 |